Погода в Александрополе

Украина / Днепропетровская область     48°35′55″N   36°33′10″E
темп.,
°C
ветер,
м/с
пор.,
м/с
влажн.,
%
обл.,
%
осадки,
мм/ч
давл.,
гПа
погр.,
м
8 марта, пн
пн823:00−1зюз7156587 0.0 1015695
02:00−1зюз8156988 0.0 1014565
05:00−1зюз7147588 0.0 1013494
08:00+1зюз8136894 0.0 1012745
11:00+5зюз9145193 0.0 10111763
14:00+5зюз9135397 0.0 10101873
17:00+2з497999 0.1 1011572
20:000зсз4108299 0.1 1012456
9 марта, вт
вт923:00−1зсз3790100 0.0 1012302
02:00−2з3689100 0.0 1013245
05:00−2зсз588439 0.1 1013517
08:00−1сз796969 0.1 10151071
11:00−1сз6857100 0.1 10161203
14:000сз784995 0.1 10171570
17:00−2сз575799 0.0 10191212
20:00−4ссз486765 0.0 1022631
10 марта, ср
ср1023:00−4ссз46679 0.0 1023774
02:00−5ссз456628 0.0 1025843
05:00−5ссз346598 0.0 1025827
08:00−5с345669 0.0 1026817
11:00−3ссв23418 0.0 10261124
14:00−1с223553 0.0 10261323
17:00−2ссв2341100 0.0 1025282
20:00−3св354990 0.0 1026172
11 марта, чт
чт1123:00−4св35505 0.0 1026281
02:00−4всв25513 0.0 1027348
05:00−5всв36540 0.0 1027443
08:00−5всв46500 0.0 1029627
11:00−3всв44454 0.0 10291030
14:00−2св444146 0.0 10291398
17:00−4всв443556 0.0 10291211
20:00−5в452928 0.0 1031614
12 марта, пт
пт1223:00−6вюв45280 0.0 1031625
02:00−6юв35320 0.0 1031513
05:00−7юв36360 0.0 1031395
08:00−6ююв573224 0.0 1032627
11:00−4ююв672766 0.0 1031755
14:00−1ю682683 0.0 1029973
17:00−2ююв693573 0.0 1028863
20:00−3ю7113686 0.0 1028638